| time (UTC) | temp F | wind direction | speed MPH | gust MPH | rain 1hr in | rain 24hr in | rain mn in | humidity % | barometer mb |
| 20260507065510 | 61 | 215 | 1.0 | 8.0 | 0.00 | 0.00 | 0.00 | 55 | 1031.2 |
| 20260507065008 | 61 | 264 | 2.0 | 9.0 | 0.00 | 0.00 | 0.00 | 55 | 1031.2 |
| 20260507064530 | 60 | 259 | 1.0 | 9.0 | 0.00 | 0.00 | 0.00 | 55 | 1031.2 |
| 20260507064010 | 60 | 0 | 1.0 | 7.0 | 0.00 | 0.00 | 0.00 | 55 | 1031.3 |
| 20260507063511 | 60 | 200 | 1.0 | 9.0 | 0.00 | 0.00 | 0.00 | 55 | 1031.4 |
| 20260507063029 | 60 | 193 | 1.0 | 10.0 | 0.00 | 0.00 | 0.00 | 55 | 1031.3 |
| 20260507062507 | 60 | 125 | 2.0 | 10.0 | 0.00 | 0.00 | 0.00 | 54 | 1031.2 |
| 20260507062010 | 60 | 202 | 2.0 | 10.0 | 0.00 | 0.00 | 0.00 | 55 | 1031.2 |
| 20260507061530 | 60 | 242 | 1.0 | 9.0 | 0.00 | 0.00 | 0.00 | 56 | 1031.2 |
| 20260507061007 | 60 | 0 | 0.0 | 9.0 | 0.00 | 0.00 | 0.00 | 55 | 1031.2 |
| 20260507060507 | 60 | 242 | 3.0 | 9.0 | 0.00 | 0.00 | 0.00 | 55 | 1031.3 |
| 20260507060040 | 60 | 225 | 2.0 | 7.0 | 0.00 | 0.00 | 0.00 | 55 | 1031.3 |
| 20260507055512 | 60 | 238 | 2.0 | 7.0 | 0.00 | 0.00 | 0.00 | 55 | 1031.3 |
| 20260507055012 | 61 | 0 | 1.0 | 5.0 | 0.00 | 0.00 | 0.00 | 55 | 1031.3 |
| 20260507054533 | 61 | 0 | 1.0 | 7.0 | 0.00 | 0.00 | 0.00 | 56 | 1031.3 |
| 20260507054013 | 61 | 0 | 1.0 | 7.0 | 0.00 | 0.00 | 0.00 | 56 | 1031.4 |
| 20260507053513 | 61 | 287 | 0.0 | 4.0 | 0.00 | 0.00 | 0.00 | 56 | 1031.3 |
| 20260507053028 | 61 | 293 | 0.0 | 8.0 | 0.00 | 0.00 | 0.00 | 56 | 1031.3 |
| 20260507052509 | 61 | 298 | 1.0 | 8.0 | 0.00 | 0.00 | 0.00 | 55 | 1031.3 |
| 20260507052013 | 61 | 0 | 1.0 | 5.0 | 0.00 | 0.00 | 0.00 | 54 | 1031.4 |
| 20260507051530 | 61 | 217 | 1.0 | 7.0 | 0.00 | 0.00 | 0.00 | 54 | 1031.4 |
| 20260507051009 | 62 | 242 | 2.0 | 7.0 | 0.00 | 0.00 | 0.00 | 54 | 1031.2 |
| 20260507050507 | 62 | 213 | 2.0 | 7.0 | 0.00 | 0.00 | 0.00 | 54 | 1031.1 |
| 20260507050030 | 62 | 252 | 2.0 | 8.0 | 0.00 | 0.00 | 0.00 | 52 | 1031.2 |
| 20260507045507 | 62 | 291 | 2.0 | 8.0 | 0.00 | 0.00 | 0.00 | 53 | 1031.3 |
| 20260507045007 | 62 | 272 | 1.0 | 8.0 | 0.00 | 0.00 | 0.00 | 52 | 1031.2 |
| 20260507044545 | 62 | 275 | 3.0 | 8.0 | 0.00 | 0.00 | 0.00 | 52 | 1031.2 |
| 20260507044008 | 63 | 259 | 3.0 | 7.0 | 0.00 | 0.00 | 0.00 | 51 | 1031.2 |
| 20260507043508 | 63 | 213 | 1.0 | 10.0 | 0.00 | 0.00 | 0.00 | 52 | 1031.2 |
| 20260507043028 | 63 | 202 | 3.0 | 10.0 | 0.00 | 0.00 | 0.00 | 50 | 1031.2 |
| 20260507042510 | 63 | 244 | 2.0 | 10.0 | 0.00 | 0.00 | 0.00 | 50 | 1031.2 |
| 20260507042010 | 63 | 250 | 1.0 | 10.0 | 0.00 | 0.00 | 0.00 | 52 | 1031.2 |
| 20260507041526 | 62 | 226 | 3.0 | 7.0 | 0.00 | 0.00 | 0.00 | 52 | 1031.2 |
| 20260507041008 | 62 | 265 | 2.0 | 10.0 | 0.00 | 0.00 | 0.00 | 52 | 1031.3 |
| 20260507040511 | 61 | 0 | 1.0 | 10.0 | 0.00 | 0.00 | 0.00 | 53 | 1031.4 |
| 20260507040033 | 61 | 254 | 1.0 | 5.0 | 0.00 | 0.00 | 0.00 | 54 | 1031.3 |
| 20260507035511 | 61 | 252 | 1.0 | 6.0 | 0.00 | 0.00 | 0.00 | 54 | 1031.5 |
| 20260507035010 | 61 | 261 | 0.0 | 7.0 | 0.00 | 0.00 | 0.00 | 53 | 1031.4 |
| 20260507034534 | 61 | 265 | 1.0 | 7.0 | 0.00 | 0.00 | 0.00 | 54 | 1031.5 |
| 20260507034009 | 61 | 0 | 0.0 | 7.0 | 0.00 | 0.00 | 0.00 | 54 | 1031.5 |
| 20260507033508 | 61 | 0 | 0.0 | 8.0 | 0.00 | 0.00 | 0.00 | 54 | 1031.5 |
| 20260507033032 | 61 | 167 | 1.0 | 8.0 | 0.00 | 0.00 | 0.00 | 54 | 1031.5 |
| 20260507032514 | 61 | 163 | 1.0 | 6.0 | 0.00 | 0.03 | 0.00 | 54 | 1031.6 |
| 20260507032011 | 61 | 238 | 1.0 | 5.0 | 0.00 | 0.03 | 0.00 | 54 | 1031.7 |
| 20260507031529 | 61 | 238 | 1.0 | 8.0 | 0.00 | 0.03 | 0.00 | 53 | 1031.8 |
| 20260507031012 | 61 | 173 | 2.0 | 8.0 | 0.00 | 0.03 | 0.00 | 52 | 1031.8 |
| 20260507030515 | 62 | 229 | 1.0 | 7.0 | 0.00 | 0.03 | 0.00 | 52 | 1031.7 |
| 20260507030026 | 62 | 161 | 1.0 | 7.0 | 0.00 | 0.03 | 0.00 | 53 | 1031.8 |
| 20260507025510 | 62 | 250 | 0.0 | 6.0 | 0.00 | 0.03 | 0.00 | 53 | 1031.7 |
| 20260507025009 | 62 | 257 | 1.0 | 6.0 | 0.00 | 0.03 | 0.00 | 53 | 1031.8 |
| 20260507024528 | 62 | 212 | 1.0 | 7.0 | 0.00 | 0.03 | 0.00 | 54 | 1031.9 |
| 20260507024011 | 62 | 271 | 1.0 | 8.0 | 0.00 | 0.03 | 0.00 | 54 | 1032.0 |
| 20260507023508 | 62 | 270 | 2.0 | 8.0 | 0.00 | 0.03 | 0.00 | 54 | 1032.0 |
| 20260507023028 | 61 | 244 | 2.0 | 7.0 | 0.00 | 0.03 | 0.00 | 55 | 1031.9 |
| 20260507022513 | 61 | 257 | 1.0 | 7.0 | 0.00 | 0.03 | 0.00 | 54 | 1031.8 |
| 20260507022009 | 61 | 257 | 1.0 | 7.0 | 0.00 | 0.03 | 0.00 | 54 | 1032.0 |
| 20260507021530 | 61 | 221 | 2.0 | 6.0 | 0.00 | 0.03 | 0.00 | 54 | 1032.1 |
| 20260507021014 | 61 | 0 | 0.0 | 9.0 | 0.00 | 0.03 | 0.00 | 53 | 1032.2 |
| 20260507020511 | 61 | 210 | 2.0 | 9.0 | 0.00 | 0.03 | 0.00 | 52 | 1032.4 |
| 20260507020041 | 61 | 234 | 2.0 | 9.0 | 0.00 | 0.03 | 0.00 | 52 | 1032.3 |
| 20260507015508 | 62 | 297 | 1.0 | 8.0 | 0.00 | 0.03 | 0.00 | 52 | 1032.1 |
| 20260507015011 | 62 | 269 | 3.0 | 8.0 | 0.00 | 0.03 | 0.00 | 51 | 1032.1 |
| 20260507014534 | 62 | 232 | 2.0 | 6.0 | 0.00 | 0.03 | 0.00 | 51 | 1032.1 |
| 20260507014011 | 62 | 0 | 1.0 | 6.0 | 0.00 | 0.03 | 0.00 | 51 | 1032.1 |
| 20260507013511 | 62 | 0 | 1.0 | 10.0 | 0.00 | 0.03 | 0.00 | 51 | 1032.0 |
| 20260507013030 | 62 | 281 | 2.0 | 10.0 | 0.00 | 0.03 | 0.00 | 51 | 1032.1 |
| 20260507012508 | 62 | 209 | 2.0 | 10.0 | 0.00 | 0.03 | 0.00 | 51 | 1032.1 |
| 20260507012013 | 62 | 360 | 1.0 | 8.0 | 0.00 | 0.03 | 0.00 | 52 | 1032.1 |
| 20260507011526 | 61 | 0 | 1.0 | 10.0 | 0.00 | 0.03 | 0.00 | 52 | 1032.0 |
| 20260507011010 | 61 | 165 | 3.0 | 10.0 | 0.00 | 0.03 | 0.00 | 51 | 1032.0 |
| 20260507010507 | 61 | 165 | 2.0 | 8.0 | 0.00 | 0.03 | 0.00 | 52 | 1031.9 |
| 20260507010029 | 61 | 216 | 1.0 | 7.0 | 0.00 | 0.03 | 0.00 | 54 | 1031.9 |
| 20260507005508 | 61 | 219 | 2.0 | 11.0 | 0.00 | 0.03 | 0.00 | 54 | 1031.8 |
| 20260507005011 | 61 | 242 | 1.0 | 11.0 | 0.00 | 0.03 | 0.00 | 55 | 1031.9 |
| 20260507004532 | 61 | 213 | 2.0 | 9.0 | 0.00 | 0.03 | 0.00 | 56 | 1031.9 |
| 20260507004010 | 60 | 242 | 1.0 | 9.0 | 0.00 | 0.03 | 0.00 | 57 | 1031.7 |
| 20260507003512 | 60 | 259 | 2.0 | 9.0 | 0.00 | 0.03 | 0.00 | 58 | 1031.7 |
| 20260507003029 | 60 | 229 | 3.0 | 6.0 | 0.00 | 0.03 | 0.00 | 59 | 1031.7 |
| 20260507002507 | 60 | 213 | 0.0 | 7.0 | 0.00 | 0.03 | 0.00 | 61 | 1031.8 |
| 20260507002008 | 59 | 0 | 1.0 | 7.0 | 0.00 | 0.03 | 0.00 | 62 | 1031.8 |
| 20260507001536 | 59 | 217 | 1.0 | 8.0 | 0.00 | 0.03 | 0.00 | 64 | 1031.9 |
| 20260507001009 | 59 | 261 | 1.0 | 8.0 | 0.00 | 0.03 | 0.00 | 65 | 1031.9 |
| 20260507000510 | 58 | 210 | 2.0 | 5.0 | 0.00 | 0.03 | 0.00 | 67 | 1031.9 |
| 20260507000028 | 58 | 250 | 1.0 | 9.0 | 0.00 | 0.03 | 0.00 | 67 | 1031.8 |
| 20260506235507 | 57 | 0 | 1.0 | 9.0 | 0.00 | 0.03 | 0.00 | 69 | 1031.9 |
| 20260506235008 | 57 | 261 | 2.0 | 9.0 | 0.00 | 0.03 | 0.00 | 69 | 1031.8 |
| 20260506234526 | 57 | 222 | 1.0 | 6.0 | 0.00 | 0.03 | 0.00 | 70 | 1031.8 |
| 20260506234012 | 56 | 229 | 0.0 | 5.0 | 0.00 | 0.03 | 0.00 | 71 | 1031.9 |
| 20260506233510 | 56 | 232 | 0.0 | 4.0 | 0.00 | 0.03 | 0.00 | 71 | 1031.7 |
| 20260506233030 | 56 | 0 | 0.0 | 4.0 | 0.00 | 0.03 | 0.00 | 72 | 1031.7 |
| 20260506232508 | 55 | 234 | 0.0 | 3.0 | 0.00 | 0.03 | 0.00 | 72 | 1031.6 |
| 20260506232009 | 55 | 0 | 0.0 | 5.0 | 0.00 | 0.03 | 0.00 | 73 | 1031.8 |
| 20260506231529 | 55 | 236 | 0.0 | 5.0 | 0.00 | 0.03 | 0.00 | 74 | 1031.6 |
| 20260506231007 | 55 | 236 | 1.0 | 5.0 | 0.00 | 0.03 | 0.00 | 75 | 1031.6 |
| 20260506230509 | 54 | 0 | 0.0 | 4.0 | 0.00 | 0.03 | 0.00 | 75 | 1031.5 |
| 20260506230032 | 53 | 223 | 0.0 | 2.0 | 0.00 | 0.03 | 0.00 | 76 | 1031.3 |
| 20260506225512 | 53 | 0 | 0.0 | 2.0 | 0.00 | 0.03 | 0.00 | 76 | 1031.4 |
| 20260506225012 | 52 | 0 | 0.0 | 3.0 | 0.00 | 0.03 | 0.00 | 76 | 1031.4 |
| 20260506224528 | 51 | 0 | 0.0 | 3.0 | 0.00 | 0.03 | 0.00 | 75 | 1031.3 |
| 20260506224011 | 50 | 0 | 0.0 | 3.0 | 0.00 | 0.03 | 0.00 | 75 | 1031.3 |
| 20260506223511 | 49 | 0 | 0.0 | 0.0 | 0.00 | 0.03 | 0.00 | 74 | 1031.1 |
| 20260506223030 | 49 | 0 | 0.0 | 0.0 | 0.00 | 0.03 | 0.00 | 74 | 1031.2 |
| 20260506222513 | 48 | 0 | 0.0 | 0.0 | 0.00 | 0.04 | 0.00 | 74 | 1031.1 |
| 20260506222010 | 48 | 0 | 0.0 | 0.0 | 0.00 | 0.04 | 0.00 | 73 | 1031.0 |
| 20260506221528 | 47 | 0 | 0.0 | 0.0 | 0.00 | 0.04 | 0.00 | 73 | 1030.9 |
| 20260506221011 | 47 | 0 | 0.0 | 0.0 | 0.00 | 0.04 | 0.00 | 72 | 1030.9 |
| 20260506220511 | 47 | 0 | 0.0 | 0.0 | 0.00 | 0.04 | 0.00 | 72 | 1030.8 |
| 20260506220034 | 47 | 0 | 0.0 | 0.0 | 0.00 | 0.04 | 0.00 | 72 | 1030.8 |
| 20260506215508 | 47 | 0 | 0.0 | 1.0 | 0.00 | 0.04 | 0.00 | 72 | 1030.7 |
| 20260506215009 | 47 | 0 | 0.0 | 1.0 | 0.00 | 0.04 | 0.00 | 72 | 1030.7 |
| 20260506214529 | 48 | 0 | 0.0 | 1.0 | 0.00 | 0.04 | 0.00 | 72 | 1030.8 |
| 20260506214015 | 48 | 0 | 0.0 | 0.0 | 0.00 | 0.04 | 0.00 | 72 | 1030.7 |
| 20260506213508 | 48 | 0 | 0.0 | 0.0 | 0.00 | 0.04 | 0.00 | 71 | 1030.6 |
| 20260506213030 | 48 | 0 | 0.0 | 0.0 | 0.00 | 0.04 | 0.00 | 71 | 1030.5 |
| 20260506212512 | 48 | 0 | 0.0 | 0.0 | 0.00 | 0.04 | 0.00 | 71 | 1030.3 |
| 20260506212016 | 48 | 0 | 0.0 | 0.0 | 0.00 | 0.04 | 0.00 | 71 | 1030.3 |
| 20260506211533 | 49 | 0 | 0.0 | 0.0 | 0.00 | 0.04 | 0.00 | 71 | 1030.2 |
| 20260506211013 | 49 | 0 | 0.0 | 0.0 | 0.00 | 0.04 | 0.00 | 71 | 1030.2 |
| 20260506210510 | 49 | 0 | 0.0 | 0.0 | 0.00 | 0.04 | 0.00 | 71 | 1030.2 |
| 20260506210028 | 49 | 0 | 0.0 | 0.0 | 0.00 | 0.04 | 0.00 | 71 | 1030.0 |
| 20260506205512 | 49 | 0 | 0.0 | 0.0 | 0.00 | 0.04 | 0.00 | 71 | 1029.9 |
| 20260506205014 | 50 | 0 | 0.0 | 0.0 | 0.00 | 0.04 | 0.00 | 71 | 1029.8 |
| 20260506204528 | 50 | 0 | 0.0 | 0.0 | 0.00 | 0.04 | 0.00 | 71 | 1029.7 |
| 20260506204012 | 50 | 0 | 0.0 | 0.0 | 0.00 | 0.04 | 0.00 | 71 | 1029.6 |
| 20260506203513 | 50 | 0 | 0.0 | 0.0 | 0.00 | 0.04 | 0.00 | 71 | 1029.6 |
| 20260506203033 | 51 | 0 | 0.0 | 0.0 | 0.00 | 0.04 | 0.00 | 71 | 1029.6 |
| 20260506202510 | 51 | 0 | 0.0 | 0.0 | 0.00 | 0.04 | 0.00 | 71 | 1029.6 |
| 20260506202016 | 51 | 0 | 0.0 | 0.0 | 0.00 | 0.04 | 0.00 | 71 | 1029.6 |
| 20260506201528 | 51 | 0 | 0.0 | 0.0 | 0.00 | 0.04 | 0.00 | 71 | 1029.5 |
| 20260506201010 | 51 | 0 | 0.0 | 1.0 | 0.00 | 0.04 | 0.00 | 71 | 1029.6 |
| 20260506200515 | 51 | 0 | 0.0 | 2.0 | 0.00 | 0.04 | 0.00 | 71 | 1029.4 |
| 20260506200032 | 51 | 0 | 0.0 | 2.0 | 0.00 | 0.04 | 0.00 | 71 | 1029.5 |
| 20260506195511 | 51 | 0 | 0.0 | 2.0 | 0.00 | 0.04 | 0.00 | 71 | 1029.5 |
| 20260506195011 | 51 | 0 | 0.0 | 2.0 | 0.00 | 0.04 | 0.00 | 70 | 1029.4 |
| 20260506194530 | 51 | 0 | 0.0 | 2.0 | 0.00 | 0.04 | 0.00 | 70 | 1029.2 |
| 20260506194010 | 51 | 0 | 0.0 | 0.0 | 0.00 | 0.04 | 0.00 | 70 | 1029.2 |
| 20260506193512 | 51 | 0 | 0.0 | 0.0 | 0.00 | 0.04 | 0.00 | 69 | 1029.2 |
| 20260506193029 | 52 | 0 | 0.0 | 0.0 | 0.00 | 0.04 | 0.00 | 69 | 1029.2 |
| 20260506192512 | 52 | 0 | 0.0 | 2.0 | 0.00 | 0.04 | 0.00 | 69 | 1029.2 |
| 20260506192011 | 52 | 0 | 0.0 | 2.0 | 0.00 | 0.04 | 0.00 | 69 | 1029.1 |
| 20260506191534 | 52 | 224 | 0.0 | 2.0 | 0.00 | 0.04 | 0.00 | 69 | 1029.2 |
| 20260506191010 | 52 | 0 | 0.0 | 0.0 | 0.00 | 0.04 | 0.00 | 69 | 1029.1 |
| 20260506190511 | 53 | 0 | 0.0 | 3.0 | 0.00 | 0.04 | 0.00 | 69 | 1029.0 |
| 20260506190028 | 53 | 0 | 0.0 | 3.0 | 0.00 | 0.04 | 0.00 | 70 | 1028.8 |
| 20260506185510 | 53 | 0 | 0.0 | 3.0 | 0.00 | 0.04 | 0.00 | 70 | 1028.7 |
| 20260506185016 | 53 | 0 | 0.0 | 5.0 | 0.00 | 0.04 | 0.00 | 70 | 1028.7 |
| 20260506184531 | 53 | 0 | 1.0 | 5.0 | 0.00 | 0.04 | 0.00 | 70 | 1028.6 |
| 20260506184011 | 53 | 0 | 0.0 | 5.0 | 0.00 | 0.04 | 0.00 | 70 | 1028.8 |
| 20260506183511 | 52 | 0 | 1.0 | 5.0 | 0.00 | 0.04 | 0.00 | 70 | 1028.8 |
| 20260506183028 | 52 | 0 | 0.0 | 5.0 | 0.00 | 0.04 | 0.00 | 70 | 1028.7 |
| 20260506182511 | 52 | 237 | 0.0 | 5.0 | 0.00 | 0.04 | 0.00 | 70 | 1028.7 |
| 20260506182012 | 52 | 246 | 0.0 | 2.0 | 0.00 | 0.04 | 0.00 | 70 | 1028.6 |
| 20260506181534 | 52 | 248 | 0.0 | 4.0 | 0.00 | 0.04 | 0.00 | 69 | 1028.5 |
| 20260506181012 | 52 | 0 | 0.0 | 4.0 | 0.00 | 0.04 | 0.00 | 69 | 1028.6 |
| 20260506180509 | 52 | 0 | 0.0 | 3.0 | 0.00 | 0.04 | 0.00 | 69 | 1028.6 |
| 20260506180031 | 52 | 0 | 0.0 | 4.0 | 0.00 | 0.04 | 0.00 | 69 | 1028.4 |
| 20260506175514 | 52 | 248 | 0.0 | 4.0 | 0.00 | 0.04 | 0.00 | 69 | 1028.6 |
| 20260506175012 | 52 | 0 | 0.0 | 3.0 | 0.00 | 0.04 | 0.00 | 69 | 1028.6 |
| 20260506174532 | 52 | 0 | 0.0 | 3.0 | 0.00 | 0.04 | 0.00 | 69 | 1028.7 |
| 20260506174011 | 52 | 0 | 0.0 | 0.0 | 0.00 | 0.04 | 0.00 | 68 | 1028.6 |
| 20260506173509 | 52 | 0 | 0.0 | 0.0 | 0.00 | 0.04 | 0.00 | 68 | 1028.6 |
| 20260506173031 | 52 | 0 | 0.0 | 0.0 | 0.00 | 0.04 | 0.00 | 67 | 1028.7 |
| 20260506172512 | 52 | 0 | 0.0 | 0.0 | 0.00 | 0.04 | 0.00 | 67 | 1028.6 |
| 20260506172011 | 52 | 0 | 0.0 | 0.0 | 0.00 | 0.04 | 0.00 | 66 | 1028.6 |
| 20260506171540 | 52 | 0 | 0.0 | 0.0 | 0.00 | 0.04 | 0.00 | 66 | 1028.5 |
| 20260506171011 | 52 | 0 | 0.0 | 0.0 | 0.00 | 0.04 | 0.00 | 65 | 1028.7 |
| 20260506170512 | 52 | 0 | 0.0 | 0.0 | 0.00 | 0.04 | 0.00 | 65 | 1028.7 |
| 20260506170037 | 53 | 0 | 0.0 | 0.0 | 0.00 | 0.04 | 0.00 | 64 | 1028.7 |
| 20260506165509 | 53 | 0 | 0.0 | 0.0 | 0.00 | 0.04 | 0.00 | 64 | 1028.8 |
| 20260506165008 | 53 | 0 | 0.0 | 0.0 | 0.00 | 0.04 | 0.00 | 64 | 1028.9 |
| 20260506164532 | 53 | 0 | 0.0 | 0.0 | 0.00 | 0.04 | 0.00 | 64 | 1028.8 |
| 20260506164010 | 54 | 0 | 0.0 | 0.0 | 0.00 | 0.04 | 0.00 | 64 | 1028.7 |
| 20260506163515 | 54 | 0 | 0.0 | 0.0 | 0.00 | 0.04 | 0.00 | 64 | 1028.7 |
| 20260506163029 | 54 | 0 | 0.0 | 3.0 | 0.00 | 0.04 | 0.00 | 64 | 1028.8 |
| 20260506162511 | 54 | 0 | 0.0 | 3.0 | 0.00 | 0.04 | 0.00 | 64 | 1028.8 |
| 20260506162014 | 54 | 0 | 0.0 | 3.0 | 0.00 | 0.04 | 0.00 | 64 | 1028.8 |
| 20260506161528 | 55 | 256 | 0.0 | 3.0 | 0.00 | 0.04 | 0.00 | 63 | 1028.6 |
| 20260506161012 | 55 | 0 | 1.0 | 3.0 | 0.00 | 0.04 | 0.00 | 63 | 1028.6 |
| 20260506160510 | 55 | 264 | 0.0 | 4.0 | 0.00 | 0.04 | 0.00 | 63 | 1028.6 |
| 20260506160032 | 55 | 265 | 1.0 | 8.0 | 0.00 | 0.04 | 0.00 | 62 | 1028.5 |
| 20260506155508 | 55 | 267 | 1.0 | 8.0 | 0.00 | 0.04 | 0.00 | 62 | 1028.5 |
| 20260506155010 | 55 | 274 | 1.0 | 8.0 | 0.00 | 0.04 | 0.00 | 62 | 1028.6 |
| 20260506154532 | 55 | 239 | 1.0 | 5.0 | 0.00 | 0.04 | 0.00 | 61 | 1028.5 |
| 20260506154012 | 55 | 255 | 1.0 | 8.0 | 0.00 | 0.04 | 0.00 | 61 | 1028.5 |
| 20260506153513 | 55 | 263 | 1.0 | 8.0 | 0.00 | 0.04 | 0.00 | 61 | 1028.5 |
| 20260506153032 | 55 | 135 | 1.0 | 4.0 | 0.00 | 0.04 | 0.00 | 61 | 1028.5 |
| 20260506152509 | 55 | 0 | 0.0 | 5.0 | 0.00 | 0.04 | 0.00 | 61 | 1028.5 |
| 20260506152011 | 55 | 288 | 1.0 | 5.0 | 0.00 | 0.04 | 0.00 | 61 | 1028.5 |
| 20260506151534 | 55 | 292 | 0.0 | 7.0 | 0.00 | 0.04 | 0.00 | 62 | 1028.5 |
| 20260506151014 | 55 | 0 | 1.0 | 7.0 | 0.00 | 0.04 | 0.00 | 62 | 1028.5 |
| 20260506150510 | 55 | 303 | 0.0 | 4.0 | 0.00 | 0.04 | 0.00 | 62 | 1028.5 |
| 20260506150030 | 55 | 0 | 0.0 | 4.0 | 0.00 | 0.04 | 0.00 | 63 | 1028.4 |
| 20260506145514 | 55 | 0 | 0.0 | 6.0 | 0.00 | 0.04 | 0.00 | 63 | 1028.4 |
| 20260506145010 | 55 | 309 | 1.0 | 7.0 | 0.00 | 0.04 | 0.00 | 63 | 1028.4 |
| 20260506144529 | 55 | 165 | 2.0 | 7.0 | 0.00 | 0.04 | 0.00 | 64 | 1028.5 |
| 20260506144015 | 55 | 236 | 0.0 | 7.0 | 0.00 | 0.04 | 0.00 | 64 | 1028.4 |
| 20260506143509 | 55 | 237 | 2.0 | 9.0 | 0.00 | 0.04 | 0.00 | 64 | 1028.5 |
| 20260506143028 | 55 | 246 | 2.0 | 9.0 | 0.00 | 0.04 | 0.00 | 65 | 1028.5 |
| 20260506142513 | 55 | 169 | 1.0 | 5.0 | 0.00 | 0.04 | 0.04 | 66 | 1028.4 |
| 20260506142009 | 55 | 0 | 1.0 | 4.0 | 0.00 | 0.04 | 0.04 | 67 | 1028.4 |
| 20260506141528 | 55 | 208 | 1.0 | 3.0 | 0.00 | 0.04 | 0.04 | 67 | 1028.4 |
| 20260506141009 | 55 | 0 | 0.0 | 8.0 | 0.00 | 0.04 | 0.04 | 67 | 1028.3 |
| 20260506140510 | 55 | 211 | 1.0 | 8.0 | 0.00 | 0.04 | 0.04 | 67 | 1028.3 |
| 20260506140029 | 55 | 212 | 2.0 | 10.0 | 0.00 | 0.04 | 0.04 | 67 | 1028.2 |
| 20260506135510 | 55 | 168 | 1.0 | 10.0 | 0.00 | 0.04 | 0.04 | 68 | 1028.2 |
| 20260506135010 | 55 | 207 | 2.0 | 10.0 | 0.00 | 0.04 | 0.04 | 68 | 1028.2 |
| 20260506134530 | 55 | 189 | 1.0 | 6.0 | 0.00 | 0.04 | 0.04 | 68 | 1028.2 |
| 20260506134021 | 55 | 0 | 2.0 | 6.0 | 0.00 | 0.04 | 0.04 | 69 | 1028.2 |
| 20260506133041 | 55 | 188 | 1.0 | 5.0 | 0.00 | 0.04 | 0.04 | 69 | 1028.1 |
| 20260506132509 | 55 | 0 | 1.0 | 8.0 | 0.00 | 0.04 | 0.04 | 69 | 1028.0 |
| 20260506132010 | 56 | 200 | 1.0 | 9.0 | 0.00 | 0.04 | 0.04 | 69 | 1027.9 |
| 20260506131531 | 56 | 182 | 2.0 | 9.0 | 0.00 | 0.04 | 0.04 | 69 | 1027.8 |
| 20260506131010 | 56 | 0 | 1.0 | 7.0 | 0.00 | 0.04 | 0.04 | 69 | 1027.8 |
| 20260506130517 | 56 | 228 | 0.0 | 5.0 | 0.00 | 0.04 | 0.04 | 70 | 1027.8 |
| 20260506130028 | 56 | 0 | 0.0 | 5.0 | 0.00 | 0.04 | 0.04 | 70 | 1027.7 |
| 20260506125510 | 56 | 0 | 0.0 | 5.0 | 0.00 | 0.04 | 0.04 | 70 | 1027.7 |
| 20260506125009 | 56 | 0 | 1.0 | 5.0 | 0.00 | 0.04 | 0.04 | 70 | 1027.8 |
| 20260506124528 | 56 | 0 | 0.0 | 9.0 | 0.00 | 0.04 | 0.04 | 70 | 1027.7 |
| 20260506124009 | 56 | 219 | 1.0 | 9.0 | 0.00 | 0.04 | 0.04 | 70 | 1027.6 |
| 20260506123511 | 56 | 205 | 2.0 | 7.0 | 0.00 | 0.04 | 0.04 | 71 | 1027.6 |
| 20260506123028 | 56 | 206 | 1.0 | 6.0 | 0.00 | 0.04 | 0.04 | 72 | 1027.6 |
| 20260506122509 | 56 | 198 | 1.0 | 10.0 | 0.00 | 0.04 | 0.04 | 72 | 1027.4 |
| 20260506122007 | 56 | 227 | 2.0 | 10.0 | 0.00 | 0.04 | 0.04 | 73 | 1027.4 |
| 20260506121552 | 56 | 257 | 2.0 | 10.0 | 0.00 | 0.04 | 0.04 | 74 | 1027.4 |
| 20260506121012 | 56 | 0 | 1.0 | 5.0 | 0.00 | 0.04 | 0.04 | 75 | 1027.2 |
| 20260506120510 | 56 | 190 | 1.0 | 5.0 | 0.00 | 0.04 | 0.04 | 75 | 1027.3 |
| 20260506120035 | 56 | 0 | 0.0 | 6.0 | 0.00 | 0.04 | 0.04 | 76 | 1027.2 |
| 20260506115514 | 56 | 182 | 1.0 | 6.0 | 0.00 | 0.04 | 0.04 | 76 | 1027.1 |
| 20260506115016 | 56 | 169 | 2.0 | 8.0 | 0.00 | 0.04 | 0.04 | 76 | 1027.1 |
| 20260506114530 | 56 | 161 | 1.0 | 8.0 | 0.00 | 0.04 | 0.04 | 77 | 1027.1 |
| 20260506114016 | 56 | 0 | 0.0 | 5.0 | 0.00 | 0.04 | 0.04 | 77 | 1027.2 |
| 20260506113511 | 56 | 210 | 1.0 | 7.0 | 0.00 | 0.04 | 0.04 | 77 | 1027.0 |
| 20260506113030 | 56 | 209 | 1.0 | 7.0 | 0.00 | 0.04 | 0.04 | 78 | 1027.0 |
| 20260506112509 | 57 | 209 | 1.0 | 6.0 | 0.00 | 0.04 | 0.04 | 78 | 1026.9 |
| 20260506112009 | 57 | 218 | 1.0 | 6.0 | 0.00 | 0.04 | 0.04 | 78 | 1026.9 |
| 20260506111530 | 57 | 213 | 1.0 | 6.0 | 0.00 | 0.04 | 0.04 | 78 | 1026.7 |
| 20260506111011 | 57 | 0 | 1.0 | 5.0 | 0.00 | 0.04 | 0.04 | 78 | 1026.8 |
| 20260506110513 | 57 | 211 | 1.0 | 8.0 | 0.00 | 0.04 | 0.04 | 78 | 1026.7 |
| 20260506110033 | 57 | 0 | 0.0 | 8.0 | 0.00 | 0.04 | 0.04 | 78 | 1026.6 |
| 20260506105511 | 57 | 0 | 0.0 | 3.0 | 0.00 | 0.04 | 0.04 | 78 | 1026.6 |
| 20260506105011 | 57 | 226 | 1.0 | 4.0 | 0.00 | 0.04 | 0.04 | 78 | 1026.4 |
| 20260506104528 | 57 | 226 | 0.0 | 4.0 | 0.00 | 0.04 | 0.04 | 78 | 1026.6 |
| 20260506104008 | 57 | 0 | 1.0 | 4.0 | 0.00 | 0.04 | 0.04 | 79 | 1026.4 |
| 20260506103510 | 58 | 225 | 0.0 | 4.0 | 0.00 | 0.04 | 0.04 | 78 | 1026.4 |
| 20260506103032 | 58 | 0 | 0.0 | 4.0 | 0.00 | 0.04 | 0.04 | 78 | 1026.4 |
| 20260506102509 | 58 | 0 | 1.0 | 4.0 | 0.00 | 0.04 | 0.04 | 78 | 1026.2 |
| 20260506102014 | 58 | 0 | 0.0 | 6.0 | 0.00 | 0.04 | 0.04 | 78 | 1026.2 |
| 20260506101538 | 58 | 225 | 1.0 | 6.0 | 0.00 | 0.04 | 0.04 | 78 | 1026.1 |
| 20260506101014 | 58 | 223 | 1.0 | 6.0 | 0.00 | 0.04 | 0.04 | 79 | 1025.9 |
| 20260506100509 | 58 | 207 | 1.0 | 7.0 | 0.00 | 0.04 | 0.04 | 79 | 1025.8 |
| 20260506100032 | 58 | 206 | 1.0 | 7.0 | 0.00 | 0.04 | 0.04 | 78 | 1025.8 |
| 20260506095509 | 59 | 238 | 0.0 | 6.0 | 0.00 | 0.04 | 0.04 | 78 | 1025.8 |
| 20260506095009 | 59 | 0 | 1.0 | 7.0 | 0.00 | 0.04 | 0.04 | 79 | 1025.7 |
| 20260506094529 | 59 | 235 | 1.0 | 7.0 | 0.00 | 0.04 | 0.04 | 78 | 1025.6 |
| 20260506094009 | 59 | 244 | 1.0 | 7.0 | 0.00 | 0.04 | 0.04 | 78 | 1025.6 |
| 20260506093512 | 60 | 0 | 1.0 | 11.0 | 0.00 | 0.04 | 0.04 | 78 | 1025.5 |
| 20260506093029 | 60 | 283 | 3.0 | 11.0 | 0.00 | 0.04 | 0.04 | 77 | 1025.4 |
| 20260506092511 | 60 | 0 | 1.0 | 8.0 | 0.00 | 0.04 | 0.04 | 77 | 1025.3 |
| 20260506092013 | 60 | 161 | 2.0 | 7.0 | 0.00 | 0.04 | 0.04 | 76 | 1025.1 |
| 20260506091528 | 61 | 213 | 2.0 | 7.0 | 0.00 | 0.04 | 0.04 | 76 | 1025.0 |
| 20260506091010 | 61 | 221 | 2.0 | 5.0 | 0.00 | 0.04 | 0.04 | 76 | 1024.9 |
| 20260506090509 | 61 | 222 | 0.0 | 7.0 | 0.00 | 0.04 | 0.04 | 75 | 1024.8 |
| 20260506090029 | 61 | 221 | 1.0 | 7.0 | 0.00 | 0.04 | 0.04 | 75 | 1024.7 |
| 20260506085510 | 61 | 220 | 1.0 | 7.0 | 0.00 | 0.04 | 0.04 | 74 | 1024.6 |
| 20260506085009 | 61 | 250 | 0.0 | 5.0 | 0.00 | 0.04 | 0.04 | 74 | 1024.7 |
| 20260506084538 | 62 | 0 | 0.0 | 5.0 | 0.00 | 0.04 | 0.04 | 74 | 1024.6 |
| 20260506084009 | 62 | 0 | 1.0 | 5.0 | 0.00 | 0.04 | 0.04 | 73 | 1024.5 |
| 20260506083510 | 62 | 204 | 0.0 | 5.0 | 0.00 | 0.04 | 0.04 | 73 | 1024.5 |
| 20260506083033 | 63 | 0 | 0.0 | 5.0 | 0.00 | 0.04 | 0.04 | 73 | 1024.3 |
| 20260506082509 | 63 | 0 | 1.0 | 5.0 | 0.00 | 0.04 | 0.04 | 72 | 1024.2 |
| 20260506082009 | 63 | 0 | 0.0 | 4.0 | 0.00 | 0.04 | 0.04 | 72 | 1024.3 |
| 20260506081529 | 63 | 0 | 1.0 | 7.0 | 0.00 | 0.04 | 0.04 | 72 | 1024.1 |
| 20260506081010 | 63 | 221 | 1.0 | 7.0 | 0.00 | 0.04 | 0.04 | 70 | 1024.1 |
| 20260506080508 | 63 | 213 | 2.0 | 7.0 | 0.00 | 0.04 | 0.04 | 69 | 1024.0 |
| 20260506073510 | 63 | 207 | 2.0 | 11.0 | 0.00 | 0.04 | 0.04 | 67 | 1023.9 |
| 20260506073030 | 64 | 266 | 3.0 | 11.0 | 0.00 | 0.04 | 0.04 | 66 | 1023.8 |
| 20260506072510 | 64 | 263 | 2.0 | 8.0 | 0.00 | 0.04 | 0.04 | 66 | 1023.8 |
| 20260506072012 | 65 | 360 | 1.0 | 8.0 | 0.00 | 0.04 | 0.04 | 66 | 1023.8 |
| 20260506071530 | 65 | 360 | 2.0 | 8.0 | 0.00 | 0.04 | 0.04 | 66 | 1023.6 |
| 20260506071010 | 65 | 360 | 1.0 | 5.0 | 0.00 | 0.04 | 0.04 | 66 | 1023.6 |
| 20260506070507 | 65 | 360 | 2.0 | 10.0 | 0.00 | 0.04 | 0.04 | 66 | 1023.5 |